Find Starlink 4129

NORAD ID: 53251 Int'l Des: 2022-086 Owner: SPXS Country: US Constellation: starlink operational
LEOCIRCULAR

リアルタイム位置

3D地球を読み込み中...

Starlink 4129について

説明を読み込み中...

次回通過

Passes for default location (London). Set your location on the main map for personalized predictions.

高度履歴

Loading altitude history...

軌道要素

1 53251U 22086K 26121.56184368 -.00000078 00000-0 13172-4 0 9991
2 53251 53.2183 316.7669 0001482 95.8074 264.3087 15.08840925209043
Epoch: May 1, 2026 • Age: 8 hours

現在のステータス

高度 557.9 km
速度 7.58 km/s
衛星直下点 -49.60°S, 77.9°E
打ち上げ日 Jul 24, 2022
運用期間 3.7 years
タイプ internet

技術仕様

分類 Payload
質量 297.00 kg
乾燥質量 275.00 kg
総質量 297.00 kg
長さ 0.20 m
直径 2.80 m
スパン 9.00 m
形状 Box + pan
製造者 SPXS
バスタイプ Starlink
フェーズステータス In Orbit
所有者/国 SPXS/US

Most Searched